Bilecik

Turkey     40˚08′19″N   29˚58′37″E
temp.,
°C
wind,
m/s
gust,
m/s
humid.,
%
clouds,
%
prec.,
mm/h
press.,
hPa
HPBL,
m
27 november, fri
fri2700:00+3˚ese11830 0.0 102522
03:00+3˚se12770 0.0 102422
06:00+3˚se22680 0.0 102422
09:00+4˚se22560 0.0 102431
12:00+11˚ese35340 0.0 1023566
15:00+14˚ese35270 0.0 1020794
18:00+9˚se22380 0.0 102122
21:00+7˚sse33460 0.0 102237
28 november, sat
sat2800:00+5˚se33520 0.0 102334
03:00+4˚se23560 0.0 102327
06:00+3˚sse23590 0.0 102225
09:00+4˚se23570 0.0 102346
12:00+11˚ese24370 0.0 1021548
15:00+14˚e23270 0.0 1020700
18:00+9˚e11380 0.0 102022
21:00+7˚sse33440 0.0 102127
29 november, sun
sun2900:00+5˚se23500 0.0 102225
03:00+5˚se225231 0.0 102222
06:00+4˚se2252100 0.0 102122
09:00+5˚se2249100 0.0 102133
12:00+11˚ese2335100 0.0 1020426
15:00+14˚ene2428100 0.0 1018670
18:00+9˚e1240100 0.0 101822
21:00+8˚se2342100 0.0 101835
30 november, mon
mon3000:00+7˚se2345100 0.0 101828
03:00+7˚sse2244100 0.0 101722
06:00+7˚se2242100 0.0 101622
09:00+7˚se2254100 0.1 101646
12:00+13˚ese2432100 0.0 1015551
15:00+14˚ene2331100 0.0 1013626
18:00+11˚n1140100 0.0 101422
21:00+10˚sw1146100 0.0 101522
1 december, tue
tue100:00+9˚wnw1256100 0.0 101622
03:00+9˚wnw1180100 0.0 101632
06:00+8˚w118698 0.0 101725
09:00+8˚w129499 0.6 101879
12:00+8˚wnw1192100 1.6 1018183
15:00+8˚nnw1295100 3.1 1017154
18:00+8˚nw1196100 1.3 101875
21:00+8˚nnw1197100 3.2 101881